When you browse on this site, cookies collect data to enhance your experience and personalize the content and advertising you see.
Visit our Privacy Policy to learn more. By continuing to use the site, you agree to this use of cookies and data.
  • En España
  • Lista de países
  • Para 7 días
  • Temperatura del agua
  • El tiempo en el mapa
  • Informadores
  • user-avatar
    Iniciar sesión

    Tiempo cada hora Paine

    Hoy, 24 Enero, Viernes

    Tiempo Temperatura Precipitaciones Viento Presión Humedad
    00:00 +18°C° 0 mm 0 mps 727 mmHg 81%
    01:00 +17°C° 0 mm 0 mps 727 mmHg 83%
    02:00 +17°C° 0 mm 0 mps 726 mmHg 82%
    03:00 +17°C° 0 mm 0 mps 726 mmHg 82%
    04:00 +17°C° 0 mm 0 mps 726 mmHg 82%
    05:00 +21°C° 0 mm 1 mps 727 mmHg 74%
    06:00 +23°C° 0 mm 1 mps 727 mmHg 66%
    07:00 +25°C° 0 mm 1 mps 728 mmHg 59%
    08:00 +27°C° 0 mm 1 mps 728 mmHg 53%
    09:00 +29°C° 0 mm 2 mps 728 mmHg 47%
    10:00 +32°C° 0 mm 2 mps 727 mmHg 40%
    11:00 +34°C° 0 mm 3 mps 727 mmHg 36%
    12:00 +36°C° 0 mm 3 mps 727 mmHg 32%
    13:00 +37°C° 0 mm 4 mps 727 mmHg 28%
    14:00 +37°C° 0 mm 4 mps 727 mmHg 26%
    15:00 +36°C° 0 mm 4 mps 727 mmHg 25%
    16:00 +36°C° 0 mm 5 mps 727 mmHg 24%
    17:00 +31°C° 0 mm 3 mps 727 mmHg 32%
    18:00 +28°C° 0 mm 2 mps 727 mmHg 39%
    19:00 +24°C° 0 mm 1 mps 727 mmHg 46%
    20:00 +23°C° 0 mm 1 mps 727 mmHg 51%
    21:00 +21°C° 0 mm 1 mps 727 mmHg 55%
    22:00 +18°C° 0 mm 0 mps 727 mmHg 59%
    23:00 +18°C° 0 mm 0 mps 727 mmHg 60%

    Mañana, 25 Enero, Sábado

    Tiempo Temperatura Precipitaciones Viento Presión Humedad
    00:00 +18°C° 0 mm 0 mps 726 mmHg 60%
    01:00 +17°C° 0 mm 0 mps 726 mmHg 60%
    02:00 +17°C° 0 mm 0 mps 726 mmHg 60%
    03:00 +17°C° 0 mm 0 mps 726 mmHg 60%
    04:00 +17°C° 0 mm 0 mps 726 mmHg 59%
    05:00 +19°C° 0 mm 0 mps 726 mmHg 51%
    06:00 +22°C° 0 mm 0 mps 727 mmHg 43%
    07:00 +25°C° 0 mm 0 mps 728 mmHg 35%
    08:00 +29°C° 0 mm 1 mps 728 mmHg 30%
    09:00 +31°C° 0 mm 2 mps 728 mmHg 25%
    10:00 +35°C° 0 mm 2 mps 728 mmHg 20%
    11:00 +36°C° 0 mm 3 mps 728 mmHg 18%
    12:00 +37°C° 0 mm 3 mps 728 mmHg 16%
    13:00 +38°C° 0 mm 4 mps 728 mmHg 14%
    14:00 +38°C° 0 mm 4 mps 728 mmHg 14%
    15:00 +37°C° 0 mm 4 mps 727 mmHg 15%
    16:00 +36°C° 0 mm 4 mps 727 mmHg 16%
    17:00 +33°C° 0 mm 3 mps 727 mmHg 22%
    18:00 +28°C° 0 mm 2 mps 727 mmHg 28%
    19:00 +25°C° 0 mm 1 mps 727 mmHg 34%
    20:00 +23°C° 0 mm 1 mps 727 mmHg 37%
    21:00 +20°C° 0 mm 0 mps 728 mmHg 40%
    22:00 +18°C° 0 mm 0 mps 728 mmHg 44%
    23:00 +18°C° 0 mm 0 mps 727 mmHg 44%

    Pasado mañana, 26 Enero, Domingo

    Tiempo Temperatura Precipitaciones Viento Presión Humedad
    00:00 +18°C° 0 mm 0 mps 727 mmHg 44%
    01:00 +18°C° 0 mm 0 mps 727 mmHg 44%
    02:00 +18°C° 0 mm 0 mps 727 mmHg 44%
    03:00 +18°C° 0 mm 0 mps 727 mmHg 44%
    04:00 +17°C° 0 mm 0 mps 727 mmHg 43%
    05:00 +20°C° 0 mm 0 mps 728 mmHg 38%
    06:00 +22°C° 0 mm 0 mps 728 mmHg 33%
    07:00 +26°C° 0 mm 1 mps 729 mmHg 28%
    08:00 +29°C° 0 mm 1 mps 729 mmHg 24%
    09:00 +31°C° 0 mm 2 mps 729 mmHg 21%
    10:00 +35°C° 0 mm 2 mps 729 mmHg 17%
    11:00 +36°C° 0 mm 3 mps 729 mmHg 15%
    12:00 +37°C° 0 mm 3 mps 729 mmHg 14%
    13:00 +40°C° 0 mm 4 mps 729 mmHg 12%
    14:00 +38°C° 0 mm 4 mps 728 mmHg 14%
    15:00 +38°C° 0 mm 4 mps 728 mmHg 16%
    16:00 +37°C° 0 mm 5 mps 727 mmHg 17%
    17:00 +34°C° 0 mm 4 mps 727 mmHg 25%
    18:00 +29°C° 0 mm 2 mps 727 mmHg 34%
    19:00 +26°C° 0 mm 1 mps 727 mmHg 42%
    20:00 +24°C° 0 mm 1 mps 728 mmHg 47%
    21:00 +21°C° 0 mm 0 mps 728 mmHg 52%
    22:00 +20°C° 0 mm 0 mps 728 mmHg 57%
    23:00 +19°C° 0 mm 0 mps 727 mmHg 56%

    27 Enero, Lunes

    Tiempo Temperatura Precipitaciones Viento Presión Humedad
    00:00 +19°C° 0 mm 0 mps 727 mmHg 55%
    01:00 +21°C° 0 mm 1 mps 726 mmHg 54%
    02:00 +19°C° 0 mm 0 mps 726 mmHg 55%
    03:00 +19°C° 0 mm 0 mps 726 mmHg 55%
    04:00 +19°C° 0 mm 0 mps 726 mmHg 55%
    05:00 +21°C° 0 mm 0 mps 727 mmHg 49%
    06:00 +26°C° 0 mm 1 mps 727 mmHg 42%
    07:00 +28°C° 0 mm 1 mps 727 mmHg 35%
    08:00 +30°C° 0 mm 1 mps 727 mmHg 32%
    09:00 +32°C° 0 mm 2 mps 727 mmHg 28%
    10:00 +35°C° 0 mm 3 mps 727 mmHg 25%
    11:00 +36°C° 0 mm 3 mps 727 mmHg 23%
    12:00 +38°C° 0 mm 4 mps 727 mmHg 21%
    13:00 +40°C° 0 mm 4 mps 727 mmHg 18%
    14:00 +38°C° 0 mm 4 mps 727 mmHg 20%
    15:00 +37°C° 0 mm 5 mps 726 mmHg 22%
    16:00 +36°C° 0 mm 5 mps 726 mmHg 24%
    17:00 +33°C° 0 mm 4 mps 726 mmHg 31%
    18:00 +28°C° 0 mm 2 mps 726 mmHg 38%
    19:00 +25°C° 0 mm 1 mps 726 mmHg 45%
    20:00 +24°C° 0 mm 1 mps 726 mmHg 50%
    21:00 +22°C° 0 mm 1 mps 726 mmHg 54%
    22:00 +19°C° 0 mm 0 mps 726 mmHg 58%
    23:00 +19°C° 0 mm 0 mps 726 mmHg 59%

    28 Enero, Martes

    Tiempo Temperatura Precipitaciones Viento Presión Humedad
    00:00 +18°C° 0 mm 0 mps 725 mmHg 59%
    01:00 +18°C° 0 mm 0 mps 725 mmHg 60%
    02:00 +18°C° 0 mm 0 mps 725 mmHg 61%
    03:00 +18°C° 0 mm 0 mps 725 mmHg 63%
    04:00 +17°C° 0 mm 0 mps 725 mmHg 64%
    05:00 +20°C° 0 mm 0 mps 725 mmHg 56%
    06:00 +22°C° 0 mm 0 mps 725 mmHg 47%
    07:00 +24°C° 0 mm 0 mps 725 mmHg 39%
    08:00 +29°C° 0 mm 1 mps 726 mmHg 35%
    09:00 +31°C° 0 mm 2 mps 726 mmHg 30%
    10:00 +34°C° 0 mm 3 mps 726 mmHg 26%
    11:00 +35°C° 0 mm 3 mps 726 mmHg 24%
    12:00 +36°C° 0 mm 4 mps 726 mmHg 22%
    13:00 +37°C° 0 mm 4 mps 726 mmHg 20%
    14:00 +36°C° 0 mm 4 mps 726 mmHg 20%
    15:00 +35°C° 0 mm 4 mps 726 mmHg 21%
    16:00 +34°C° 0 mm 5 mps 726 mmHg 21%
    17:00 +29°C° 0 mm 3 mps 726 mmHg 28%
    18:00 +26°C° 0 mm 2 mps 726 mmHg 35%
    19:00 +22°C° 0 mm 1 mps 726 mmHg 42%
    20:00 +21°C° 0 mm 1 mps 726 mmHg 47%
    21:00 +17°C° 0 mm 0 mps 726 mmHg 52%
    22:00 +16°C° 0 mm 0 mps 726 mmHg 57%
    23:00 +16°C° 0 mm 0 mps 725 mmHg 58%

    29 Enero, Miércoles

    Tiempo Temperatura Precipitaciones Viento Presión Humedad
    00:00 +15°C° 0 mm 0 mps 725 mmHg 59%
    01:00 +15°C° 0 mm 0 mps 724 mmHg 59%
    02:00 +15°C° 0 mm 0 mps 725 mmHg 58%
    03:00 +18°C° 0 mm 1 mps 725 mmHg 57%
    04:00 +18°C° 0 mm 1 mps 725 mmHg 57%
    05:00 +20°C° 0 mm 1 mps 725 mmHg 51%
    06:00 +21°C° 0 mm 1 mps 725 mmHg 45%
    07:00 +23°C° 0 mm 1 mps 726 mmHg 39%
    08:00 +25°C° 0 mm 1 mps 726 mmHg 34%
    09:00 +28°C° 0 mm 2 mps 726 mmHg 28%
    10:00 +30°C° 0 mm 3 mps 727 mmHg 23%
    11:00 +31°C° 0 mm 3 mps 726 mmHg 22%
    12:00 +33°C° 0 mm 3 mps 726 mmHg 20%
    13:00 +35°C° 0 mm 4 mps 726 mmHg 19%
    14:00 +34°C° 0 mm 4 mps 726 mmHg 21%
    15:00 +33°C° 0 mm 4 mps 726 mmHg 24%
    16:00 +33°C° 0 mm 4 mps 726 mmHg 26%
    17:00 +28°C° 0 mm 3 mps 726 mmHg 36%
    18:00 +25°C° 0 mm 2 mps 726 mmHg 47%
    19:00 +21°C° 0 mm 1 mps 726 mmHg 57%
    20:00 +20°C° 0 mm 1 mps 726 mmHg 62%
    21:00 +19°C° 0 mm 1 mps 727 mmHg 67%
    22:00 +15°C° 0 mm 0 mps 727 mmHg 72%
    23:00 +15°C° 0 mm 0 mps 726 mmHg 72%
    Mostrar más